Overview Statistics Trail Chart Weather Telemetry Raw packets
 

This is the latest recevied weather packets stored in our database for station/object K7FLA. If no packets are shown the sender has not sent any weather packets the latest 10 day(s).

<< 54 55 56 57 58 59 60 >>
Time Temp. Humidity Pressure Rain* Wind** Luminosity Snow
1788304992 31.11° C 23% 1095.3 hPa 0 mm - 327 W/m² -
1788304689 31.11° C 23% 1095.5 hPa 0 mm - 340 W/m² -
1788304380 31.67° C 21% 1095.3 hPa 0 mm - 358 W/m² -
1788304076 31.67° C 21% 1095.4 hPa 0 mm - 374 W/m² -
1788303774 31.67° C 21% 1095.2 hPa 0 mm - 391 W/m² -
1788303470 31.67° C 20% 1095.4 hPa 0 mm - 407 W/m² -
1788303164 31.67° C 21% 1095.4 hPa 0 mm - 422 W/m² -
1788302860 31.67° C 20% 1095.3 hPa 0 mm - 438 W/m² -
1788302556 32.22° C 19% 1095.5 hPa 0 mm - 452 W/m² -
1788302252 32.22° C 20% 1095.6 hPa 0 mm - 466 W/m² -
1788301946 32.22° C 19% 1095.6 hPa 0 mm - 480 W/m² -
1788301643 32.22° C 19% 1095.6 hPa 0 mm - 501 W/m² -
1788301339 32.22° C 21% 1095.5 hPa 0 mm - 516 W/m² -
1788301034 32.22° C 18% 1095.6 hPa 0 mm - 529 W/m² -
1788300730 32.78° C 19% 1095.9 hPa 0 mm - 543 W/m² -
1788300429 32.22° C 20% 1095.9 hPa 0 mm - 558 W/m² -
1788300129 32.22° C 18% 1096.1 hPa 0 mm - 571 W/m² -
1788299828 32.22° C 20% 1095.9 hPa 0 mm - 582 W/m² -
1788299528 32.22° C 19% 1096.1 hPa 0 mm - 595 W/m² -
1788299226 32.22° C 18% 1096.1 hPa 0 mm - 608 W/m² -
1788298921 32.22° C 19% 1096.3 hPa 0 mm - 624 W/m² -
1788298620 32.78° C 19% 1096.2 hPa 0 mm - 636 W/m² -
1788298316 32.78° C 17% 1096.1 hPa 0 mm - 647 W/m² -
1788298015 32.78° C 18% 1096.3 hPa 0 mm - 657 W/m² -
1788297711 32.78° C 19% 1096.5 hPa 0 mm - 672 W/m² -

* Rain latest hour (hover to see other rain measurements)
** Current wind speed in m/s (hover to see current wind gust speed)